"Pseudo-MPEC" for 1995-062B = NORAD 23716 = ISO Rk

Created 2017 Apr 5 22:42:10 UT using Find_Orb

Astrometry:
1995-062B     C2016 01 05.13516 06 15 44.58 +05 43 14.3         x13.0 R D0541Y00
1995-062B     C2016 01 05.13703 06 15 59.59 +05 42 43.1         x12.8 R D0541Y00
1995-062B     C2016 01 05.13834 06 16 10.26 +05 42 19.1         x12.7 R D0541Y00
1995-062B     C2017 01 01.19756 09 14 58.82 +01 33 10.3          13.0 R D0554Y00
1995-062B     C2017 01 01.19858 09 15 08.03 +01 33 01.6          13.1 R D0554Y00
1995-062B     C2017 01 01.19977 09 15 18.75 +01 32 51.8          13.2 R D0554Y00
1995-062B     C2017 01 02.29920 09 16 17.45 +01 26 02.3          13.1 R D0554Y00
1995-062B     C2017 01 02.30096 09 16 33.56 +01 25 50.1          13.1 R D0554Y00
1995-062B     C2017 01 02.30259 09 16 48.51 +01 25 38.2          13.3 R D0554Y00
1995-062B     C2017 02 04.14275 10 34 32.40 +01 19 56.7          13.3 R D0554Y00
1995-062B     C2017 02 04.14378 10 34 41.38 +01 20 01.1          12.8 R D0554Y00
1995-062B     C2017 02 04.14479 10 34 50.20 +01 20 04.9          12.9 R D0554Y00
1995-062B     C2017 02 05.30465 10 45 44.26 +01 29 45.5          12.5 R D0554Y00
1995-062B     C2017 02 05.30608 10 46 00.42 +01 29 56.7          12.2 R D0554Y00
1995-062B     C2017 02 05.30748 10 46 16.25 +01 30 07.5          12.0 R D0554Y00
1995-062B    tC2017 02 22.96236 10 24 59.10 +01 16 18.4          14.0 R      Y00
1995-062B    tC2017 02 22.96342 10 25 10.49 +01 16 19.3          14.4 R      Y00
1995-062B    tC2017 02 22.96452 10 25 22.10 +01 16 21.6          13.4 R      Y00
1995-062B     C2017 02 24.16313 10 42 03.48 +01 25 24.0          12.3 R      Y00
1995-062B     C2017 02 24.16438 10 42 14.19 +01 25 30.5          12.6 R      Y00
1995-062B     C2017 02 24.16537 10 42 22.44 +01 25 35.7          12.4 R      Y00
1995-062B    tC2017 03 16.23121 10 58 27.44 +01 36 21.4          12.6 R      Y00
1995-062B    tC2017 03 16.23263 10 58 43.60 +01 36 31.6          13.1 R      Y00
1995-062B    tC2017 03 16.23401 10 58 59.16 +01 36 42.5          13.3 R      Y00
1995-062B    tC2017 03 28.94156 12 00 19.26 +01 55 05.8          13.2 R      Y00
1995-062B    tC2017 03 28.94255 12 00 38.47 +01 55 25.5          12.9 R      Y00
1995-062B    tC2017 03 28.94353 12 00 57.58 +01 55 45.2          13.0 R      Y00
1995-062B     C2017 04 05.04074 10 35 31.55 +01 25 59.9          13.2 R      Y00
1995-062B     C2017 04 05.04242 10 35 44.60 +01 26 02.6          12.8 R      Y00
1995-062B     C2017 04 05.04435 10 35 59.39 +01 26 06.4          13.3 R      Y00

Station data:
(Y00) SONEAR Observatory, Oliveira  (S20.715080 W44.784960)  Brazil.
   Observers C. Jacques, E. Pimentel, J. Barros. Measurer C. Jacques. 0.28-m
   f/2.2 astrograph + CCD.

Orbital elements:  1995-062B = NORAD 23716 = ISO Rk
   Perigee 2017 Feb 20.356300 +/- 4.08e-5 TT =  8:33:04 (JD 2457804.856300)
Epoch 2017 Feb 20.0 TT; AMR 0.024084 +/- 0.00214 m2/kg       Gray
M 238.14681 +/- 0.013               (J2000 equatorial)
n 341.99605873 +/- 8.36e-5          Peri.  113.53220 +/- 0.0026
a 43710.8688 +/- 0.00712            Node   219.93585 +/- 0.00028
e   0.8340944 +/- 1.03e-5           Incl.    0.41677 +/- 0.00022
P1515.78m/1.053d           H 29.1   G  0.15   U  6.5
q 7251.87640 +/- 0.448    Q 80169.8612 +/- 0.458
27 of 30 observations 2017 Jan. 1-Apr. 5; mean residual 3".417
Residuals in arcseconds: 
160105 Y00( 475+ 30.1-)   170204 Y00 4.14- .255+    170224 Y00 2.05+ .244-
160105 Y00( 473+ 28.8-)   170204 Y00 3.74- .072+    170316 Y00 4.27+ 1.77+
160105 Y00( 475+ 30.1-)   170205 Y00 4.54- .545-    170316 Y00 7.67+ .731+
170101 Y00 1.22+ .064-    170205 Y00 5.81- .488-    170316 Y00 7.47+ .615+
170101 Y00 1.22+ .182-    170205 Y00 8.37- .718-    170328 Y00 9.36- 1.09-
170101 Y00 1.28+ .025-    170222 Y00 5.03+ .232+    170328 Y00 2.06- .664-
170102 Y00 2.50+ .368-    170222 Y00 6.12+ .461-    170328 Y00 5.82+ .181-
170102 Y00 2.19+ .080+    170222 Y00 4.59+ .154+    170405 Y00 5.43- .426+
170102 Y00 2.23+ .206-    170224 Y00 .496+ .338-    170405 Y00 3.76- .114+
170204 Y00 4.35- .116-    170224 Y00 3.45+ .294-    170405 Y00 4.99- .379+

Ephemerides (geocentric):
Date (UTC) HH   RA              Dec         delta   r     elong  mag  LuElo " sig PA
---- -- -- --  ------------   ------------  ------ ------ -----  ---  ----- ---- ---
2017 04 05 00  10 27 34.483   -00 17 32.64   79701 1.0008 142.6 14.2  38.3  5.0  91
2017 04 05 01  10 37 01.625   -00 16 11.67   80086 1.0008 144.9 14.2  39.8  4.7  91
2017 04 05 02  10 46 28.045   -00 14 48.95   79800 1.0008 147.1 14.1  41.3  4.6  91
2017 04 05 03  10 56 03.387   -00 13 23.17   78838 1.0009 149.4 14.0  42.9  4.8  92
2017 04 05 04  11 05 58.146   -00 11 52.83   77186 1.0009 151.8 13.9  44.6  5.1  92
2017 04 05 05  11 16 24.773   -00 10 16.03   74818 1.0009 154.3 13.7  46.4  5.8  92
2017 04 05 06  11 27 39.304   -00 08 30.23   71690 1.0009 157.0 13.6  48.4  6.8  91
2017 04 05 07  11 40 04.050   -00 06 31.84   67744 1.0009 159.9 13.4  50.7  8.4  91
2017 04 05 08  11 54 12.613   -00 04 15.40   62892 1.0009 163.2 13.1  53.4   10  91
2017 04 05 09  12 11 00.297   -00 01 32.00   57008 1.0008 167.0 12.7  56.8   14  91
2017 04 05 10  12 32 08.880   +00 01 54.47   49900 1.0008 171.2 12.3  61.2   21  90
2017 04 05 11  13 01 17.842   +00 06 37.35   41259 1.0008 173.7 Sha   67.5   35  90
2017 04 05 12  13 48 41.565   +00 14 01.93   30529 1.0007 165.8 11.4  78.2   73  90
2017 04 05 13  15 44 18.185   +00 29 02.66   16644 1.0006 137.9 10.9 105.4  270  90
2017 04 05 14  03 01 40.541   -00 23 58.52   10030 1.0005  31.6 16??  85.4  781  90
2017 04 05 15  06 55 05.926   -00 36 47.06   25263 1.0005  89.3 13.4  31.7  120  90
2017 04 05 16  07 58 27.982   -00 33 51.39   37129 1.0006 105.0 13.7  20.3   52  90
2017 04 05 17  08 33 08.600   -00 31 08.14   46545 1.0007 113.6 13.9  16.8   31  89
2017 04 05 18  08 56 57.239   -00 28 50.74   54239 1.0008 119.5 14.0  16.2   21  89
2017 04 05 19  09 15 16.120   -00 26 52.00   60600 1.0008 124.0 14.1  16.9   15  89
2017 04 05 20  09 30 21.824   -00 25 06.10   65859 1.0009 127.7 14.2  18.0   11  89
2017 04 05 21  09 43 24.402   -00 23 29.07   70168 1.0009 130.8 14.3  19.3    9  90
2017 04 05 22  09 55 04.650   -00 21 58.11   73625 1.0010 133.7 14.3  20.7  7.9  90
2017 04 05 23  10 05 48.726   -00 20 31.17   76302 1.0010 136.3 14.3  22.0  6.7  90
2017 04 06 00  10 15 54.835   -00 19 06.64   78246 1.0010 138.7 14.3  23.3  5.8  90
2017 04 06 01  10 25 36.663   -00 17 43.15   79491 1.0011 141.1 14.3  24.7  5.2  91
2017 04 06 02  10 35 05.352   -00 16 19.47   80056 1.0011 143.4 14.2  26.0  4.9  91
2017 04 06 03  10 44 30.775   -00 14 54.38   79949 1.0011 145.7 14.1  27.4  4.7  91
2017 04 06 04  10 54 02.501   -00 13 26.58   79169 1.0011 147.9 14.1  28.9  4.8  91
2017 04 06 05  11 03 50.691   -00 11 54.58   77704 1.0012 150.3 13.9  30.4  5.1  92
2017 04 06 06  11 14 07.135   -00 10 16.54   75530 1.0012 152.7 13.8  32.1  5.7  92
2017 04 06 07  11 25 06.691   -00 08 30.09   72611 1.0012 155.4 13.7  34.0  6.6  91
2017 04 06 08  11 37 09.615   -00 06 31.87   68891 1.0012 158.2 13.4  36.2  8.1  91
2017 04 06 09  11 50 45.755   -00 04 16.94   64293 1.0012 161.4 13.2  38.7   10  91
2017 04 06 10  12 06 43.003   -00 01 37.37   58701 1.0011 165.0 12.9  41.8   13  91
2017 04 06 11  12 26 26.618   +00 01 40.69   51946 1.0011 169.1 12.5  45.9   19  90
2017 04 06 12  12 52 51.608   +00 06 04.69   43756 1.0011 173.0 Sha   51.6   31  90
2017 04 06 13  13 33 27.477   +00 12 40.08   33663 1.0010 169.5 Sha   60.8   58  90
2017 04 06 14  14 58 00.506   +00 24 54.57   20760 1.0009 150.1 11.1  80.7  171  90
2017 04 06 15  23 06 58.295   +00 11 40.07    7356 1.0008  29.3 16?? 154.3 1458  91